Time,TemperatureF,DewpointF,PressureIn,WindDirection,WindDirectionDegrees,WindSpeedMPH,WindSpeedGustMPH,Humidity,HourlyPrecipIn,Conditions,Clouds,dailyrainin,SoftwareType,DateUTC
2013-07-24 00:12:00,57.9,54.0,30.02,WSW,253,0.0,0.0,85,0.00,,,0.00,weatherlink.com 1.10,2013-07-24 07:12:00,
2013-07-24 00:27:00,56.7,53.0,30.02,WSW,253,0.0,0.0,88,0.00,,,0.00,weatherlink.com 1.10,2013-07-24 07:27:00,
2013-07-24 00:42:00,55.9,53.0,30.03,WSW,253,0.0,0.0,90,0.00,,,0.00,weatherlink.com 1.10,2013-07-24 07:42:00,
2013-07-24 00:57:00,55.4,53.0,30.03,WSW,253,0.0,0.0,90,0.00,,,0.00,weatherlink.com 1.10,2013-07-24 07:57:00,
2013-07-24 01:12:00,54.6,52.0,30.03,WSW,253,0.0,0.0,92,0.00,,,0.00,weatherlink.com 1.10,2013-07-24 08:12:00,
2013-07-24 01:27:00,54.4,53.0,30.03,WSW,253,0.0,0.0,93,0.00,,,0.00,weatherlink.com 1.10,2013-07-24 08:27:00,
2013-07-24 01:42:00,53.7,52.0,30.03,WSW,253,0.0,0.0,92,0.00,,,0.00,weatherlink.com 1.10,2013-07-24 08:42:00,
2013-07-24 01:57:00,53.4,52.0,30.03,WSW,253,0.0,0.0,94,0.00,,,0.00,weatherlink.com 1.10,2013-07-24 08:57:00,
2013-07-24 02:12:00,52.8,51.0,30.03,WSW,253,0.0,0.0,94,0.00,,,0.00,weatherlink.com 1.10,2013-07-24 09:12:00,
2013-07-24 02:27:00,52.3,51.0,30.03,WSW,253,0.0,0.0,95,0.00,,,0.00,weatherlink.com 1.10,2013-07-24 09:27:00,
2013-07-24 02:42:00,52.1,51.0,30.03,WSW,253,0.0,0.0,95,0.00,,,0.00,weatherlink.com 1.10,2013-07-24 09:42:00,
2013-07-24 02:57:00,52.0,51.0,30.04,WSW,253,0.0,0.0,96,0.00,,,0.00,weatherlink.com 1.10,2013-07-24 09:57:00,
2013-07-24 03:12:00,52.0,51.0,30.04,WSW,253,0.0,0.0,96,0.00,,,0.00,weatherlink.com 1.10,2013-07-24 10:12:00,
2013-07-24 03:27:00,51.4,50.0,30.04,WSW,253,0.0,0.0,95,0.00,,,0.00,weatherlink.com 1.10,2013-07-24 10:27:00,
2013-07-24 03:42:00,50.8,50.0,30.04,WSW,253,0.0,0.0,96,0.00,,,0.00,weatherlink.com 1.10,2013-07-24 10:42:00,
2013-07-24 03:58:00,50.3,49.0,30.04,WSW,253,0.0,0.0,96,0.00,,,0.00,weatherlink.com 1.10,2013-07-24 10:58:00,
2013-07-24 04:13:00,49.9,49.0,30.04,WSW,253,0.0,0.0,96,0.00,,,0.00,weatherlink.com 1.10,2013-07-24 11:13:00,
2013-07-24 04:28:00,49.8,49.0,30.04,WSW,253,0.0,0.0,96,0.00,,,0.00,weatherlink.com 1.10,2013-07-24 11:28:00,
2013-07-24 04:43:00,49.6,49.0,30.05,WSW,252,0.0,0.0,97,0.00,,,0.00,weatherlink.com 1.10,2013-07-24 11:43:00,
2013-07-24 04:58:00,49.6,49.0,30.05,WSW,251,0.0,0.0,97,0.00,,,0.00,weatherlink.com 1.10,2013-07-24 11:58:00,
2013-07-24 05:13:00,49.7,49.0,30.05,ENE,72,0.0,0.0,97,0.00,,,0.00,weatherlink.com 1.10,2013-07-24 12:13:00,
2013-07-24 05:28:00,49.6,49.0,30.05,ENE,71,0.0,0.0,97,0.00,,,0.00,weatherlink.com 1.10,2013-07-24 12:28:00,
2013-07-24 05:43:00,49.9,49.0,30.05,WSW,248,0.0,0.0,97,0.00,,,0.00,weatherlink.com 1.10,2013-07-24 12:43:00,
2013-07-24 05:58:00,49.9,49.0,30.05,West,266,0.0,1.0,97,0.00,,,0.00,weatherlink.com 1.10,2013-07-24 12:58:00,
2013-07-24 06:13:00,50.0,49.0,30.06,West,279,0.0,0.0,97,0.00,,,0.00,weatherlink.com 1.10,2013-07-24 13:13:00,
2013-07-24 06:28:00,50.1,49.0,30.06,WNW,293,0.0,4.0,97,0.00,,,0.00,weatherlink.com 1.10,2013-07-24 13:28:00,
2013-07-24 06:43:00,50.2,49.0,30.07,ESE,122,0.0,0.0,97,0.00,,,0.00,weatherlink.com 1.10,2013-07-24 13:43:00,
2013-07-24 06:58:00,50.5,50.0,30.06,ENE,61,0.0,0.0,97,0.00,,,0.00,weatherlink.com 1.10,2013-07-24 13:58:00,
2013-07-24 07:13:00,50.8,50.0,30.07,WNW,300,0.0,3.0,97,0.00,,,0.00,weatherlink.com 1.10,2013-07-24 14:13:00,
2013-07-24 07:28:00,51.3,51.0,30.07,NW,321,0.0,3.0,97,0.00,,,0.00,weatherlink.com 1.10,2013-07-24 14:28:00,
2013-07-24 07:43:00,51.5,51.0,30.07,WNW,288,0.0,3.0,97,0.00,,,0.00,weatherlink.com 1.10,2013-07-24 14:43:00,
2013-07-24 07:58:00,52.3,52.0,30.08,ENE,58,0.0,0.0,97,0.00,,,0.00,weatherlink.com 1.10,2013-07-24 14:58:00,
2013-07-24 08:13:00,53.0,52.0,30.07,WNW,290,0.0,3.0,96,0.00,,,0.00,weatherlink.com 1.10,2013-07-24 15:13:00,
2013-07-24 08:28:00,53.7,52.0,30.07,NW,304,2.0,5.0,94,0.00,,,0.00,weatherlink.com 1.10,2013-07-24 15:28:00,
2013-07-24 08:43:00,54.6,53.0,30.07,East,85,0.0,3.0,93,0.00,,,0.00,weatherlink.com 1.10,2013-07-24 15:43:00,
2013-07-24 08:58:00,55.3,53.0,30.07,ENE,65,0.0,1.0,91,0.00,,,0.00,weatherlink.com 1.10,2013-07-24 15:58:00,
2013-07-24 09:13:00,56.6,54.0,30.07,WNW,302,0.0,4.0,89,0.00,,,0.00,weatherlink.com 1.10,2013-07-24 16:13:00,
2013-07-24 09:28:00,57.7,54.0,30.07,NNW,345,4.0,6.0,88,0.00,,,0.00,weatherlink.com 1.10,2013-07-24 16:28:00,
2013-07-24 09:43:00,59.4,55.0,30.07,NW,322,1.0,5.0,85,0.00,,,0.00,weatherlink.com 1.10,2013-07-24 16:43:00,
2013-07-24 09:58:00,61.1,56.0,30.06,SW,217,0.0,5.0,82,0.00,,,0.00,weatherlink.com 1.10,2013-07-24 16:58:00,
2013-07-24 10:13:00,62.2,56.0,30.06,WNW,282,3.0,6.0,80,0.00,,,0.00,weatherlink.com 1.10,2013-07-24 17:13:00,
2013-07-24 10:28:00,63.9,57.0,30.06,WNW,282,2.0,6.0,77,0.00,,,0.00,weatherlink.com 1.10,2013-07-24 17:28:00,
2013-07-24 10:43:00,65.1,57.0,30.06,ENE,70,1.0,6.0,75,0.00,,,0.00,weatherlink.com 1.10,2013-07-24 17:43:00,
2013-07-24 10:58:00,66.1,57.0,30.06,ENE,65,0.0,3.0,73,0.00,,,0.00,weatherlink.com 1.10,2013-07-24 17:58:00,
2013-07-24 11:13:00,67.6,58.0,30.06,WNW,289,3.0,6.0,71,0.00,,,0.00,weatherlink.com 1.10,2013-07-24 18:13:00,
2013-07-24 11:28:00,69.1,59.0,30.05,WNW,297,4.0,4.0,69,0.00,,,0.00,weatherlink.com 1.10,2013-07-24 18:28:00,
2013-07-24 11:43:00,71.0,59.0,30.05,NW,323,0.0,7.0,66,0.00,,,0.00,weatherlink.com 1.10,2013-07-24 18:43:00,
2013-07-24 11:59:00,72.5,60.0,30.05,NW,313,3.0,6.0,64,0.00,,,0.00,weatherlink.com 1.10,2013-07-24 18:59:00,
2013-07-24 12:14:00,74.3,59.0,30.05,ENE,78,0.0,4.0,59,0.00,,,0.00,weatherlink.com 1.10,2013-07-24 19:14:00,
2013-07-24 12:29:00,75.7,60.0,30.04,WNW,287,3.0,5.0,58,0.00,,,0.00,weatherlink.com 1.10,2013-07-24 19:29:00,
2013-07-24 12:44:00,75.7,60.0,30.04,ESE,109,1.0,9.0,58,0.00,,,0.00,weatherlink.com 1.10,2013-07-24 19:44:00,
2013-07-24 12:59:00,77.3,59.0,30.04,NW,304,1.0,5.0,53,0.00,,,0.00,weatherlink.com 1.10,2013-07-24 19:59:00,
2013-07-24 13:14:00,78.7,59.0,30.04,ENE,57,2.0,6.0,51,0.00,,,0.00,weatherlink.com 1.10,2013-07-24 20:14:00,
2013-07-24 13:29:00,78.6,59.0,30.03,NNW,338,0.0,7.0,52,0.00,,,0.00,weatherlink.com 1.10,2013-07-24 20:29:00,
2013-07-24 13:44:00,79.4,60.0,30.03,East,86,3.0,9.0,51,0.00,,,0.00,weatherlink.com 1.10,2013-07-24 20:44:00,
2013-07-24 13:59:00,80.1,59.0,30.02,WNW,302,1.0,9.0,48,0.00,,,0.00,weatherlink.com 1.10,2013-07-24 20:59:00,
2013-07-24 14:14:00,81.4,59.0,30.02,NE,56,1.0,7.0,47,0.00,,,0.00,weatherlink.com 1.10,2013-07-24 21:14:00,
2013-07-24 14:29:00,81.6,59.0,30.02,WNW,287,1.0,9.0,46,0.00,,,0.00,weatherlink.com 1.10,2013-07-24 21:29:00,
2013-07-24 14:44:00,81.7,59.0,30.01,WSW,254,1.0,8.0,47,0.00,,,0.00,weatherlink.com 1.10,2013-07-24 21:44:00,
2013-07-24 14:59:00,82.2,59.0,30.01,NE,37,1.0,8.0,46,0.00,,,0.00,weatherlink.com 1.10,2013-07-24 21:59:00,
2013-07-24 15:14:00,83.7,60.0,30.01,WSW,243,1.0,8.0,45,0.00,,,0.00,weatherlink.com 1.10,2013-07-24 22:14:00,
2013-07-24 15:29:00,84.0,60.0,30.01,West,259,1.0,7.0,45,0.00,,,0.00,weatherlink.com 1.10,2013-07-24 22:29:00,
2013-07-24 15:44:00,84.8,61.0,30.00,South,187,0.0,10.0,44,0.00,,,0.00,weatherlink.com 1.10,2013-07-24 22:44:00,
2013-07-24 15:59:00,84.7,61.0,30.00,ESE,113,3.0,8.0,45,0.00,,,0.00,weatherlink.com 1.10,2013-07-24 22:59:00,
2013-07-24 16:14:00,85.0,60.0,30.00,West,279,3.0,8.0,43,0.00,,,0.00,weatherlink.com 1.10,2013-07-24 23:14:00,
2013-07-24 16:29:00,84.8,59.0,29.99,NW,308,6.0,10.0,42,0.00,,,0.00,weatherlink.com 1.10,2013-07-24 23:29:00,
2013-07-24 16:44:00,85.3,60.0,29.99,NW,315,1.0,10.0,43,0.00,,,0.00,weatherlink.com 1.10,2013-07-24 23:44:00,
2013-07-24 16:59:00,84.5,60.0,29.99,NW,316,1.0,9.0,43,0.00,,,0.00,weatherlink.com 1.10,2013-07-24 23:59:00,
2013-07-24 17:15:00,84.7,60.0,29.99,WNW,294,5.0,11.0,43,0.00,,,0.00,weatherlink.com 1.10,2013-07-25 00:15:00,
2013-07-24 17:29:00,84.3,60.0,29.99,West,278,5.0,9.0,44,0.00,,,0.00,weatherlink.com 1.10,2013-07-25 00:29:00,
2013-07-24 17:44:00,84.0,60.0,29.98,WNW,288,8.0,11.0,44,0.00,,,0.00,weatherlink.com 1.10,2013-07-25 00:44:00,
2013-07-24 17:59:00,84.1,61.0,29.98,SW,229,2.0,6.0,45,0.00,,,0.00,weatherlink.com 1.10,2013-07-25 00:59:00,
2013-07-24 18:14:00,84.1,61.0,29.98,West,270,6.0,9.0,45,0.00,,,0.00,weatherlink.com 1.10,2013-07-25 01:14:00,
2013-07-24 18:29:00,83.5,62.0,29.98,WNW,287,3.0,10.0,48,0.00,,,0.00,weatherlink.com 1.10,2013-07-25 01:29:00,
2013-07-24 18:44:00,82.2,62.0,29.98,West,276,4.0,10.0,50,0.00,,,0.00,weatherlink.com 1.10,2013-07-25 01:44:00,
2013-07-24 18:59:00,80.6,61.0,29.99,WNW,291,8.0,11.0,51,0.00,,,0.00,weatherlink.com 1.10,2013-07-25 01:59:00,
2013-07-24 19:14:00,79.8,61.0,29.99,NW,308,5.0,9.0,52,0.00,,,0.00,weatherlink.com 1.10,2013-07-25 02:14:00,
2013-07-24 19:30:00,79.2,60.0,29.99,WNW,295,3.0,8.0,52,0.00,,,0.00,weatherlink.com 1.10,2013-07-25 02:30:00,
2013-07-24 19:45:00,78.3,60.0,29.99,WNW,295,1.0,5.0,53,0.00,,,0.00,weatherlink.com 1.10,2013-07-25 02:45:00,
2013-07-24 20:00:00,77.9,59.0,30.00,WNW,297,2.0,4.0,53,0.00,,,0.00,weatherlink.com 1.10,2013-07-25 03:00:00,
2013-07-24 20:15:00,76.6,59.0,30.00,WNW,297,0.0,1.0,55,0.00,,,0.00,weatherlink.com 1.10,2013-07-25 03:15:00,
2013-07-24 20:30:00,74.1,59.0,30.00,West,279,0.0,0.0,59,0.00,,,0.00,weatherlink.com 1.10,2013-07-25 03:30:00,
2013-07-24 20:45:00,71.3,59.0,30.00,West,275,0.0,0.0,65,0.00,,,0.00,weatherlink.com 1.10,2013-07-25 03:45:00,
2013-07-24 21:00:00,68.7,58.0,30.01,West,278,0.0,0.0,69,0.00,,,0.00,weatherlink.com 1.10,2013-07-25 04:00:00,
2013-07-24 21:15:00,66.3,57.0,30.01,West,278,0.0,0.0,73,0.00,,,0.00,weatherlink.com 1.10,2013-07-25 04:15:00,
2013-07-24 21:30:00,64.2,57.0,30.01,West,278,0.0,0.0,76,0.00,,,0.00,weatherlink.com 1.10,2013-07-25 04:30:00,
2013-07-24 21:45:00,62.8,56.0,30.02,West,278,0.0,0.0,79,0.00,,,0.00,weatherlink.com 1.10,2013-07-25 04:45:00,
2013-07-24 22:00:00,61.4,56.0,30.02,West,278,0.0,0.0,81,0.00,,,0.00,weatherlink.com 1.10,2013-07-25 05:00:00,
2013-07-24 22:15:00,60.4,56.0,30.02,West,278,0.0,0.0,84,0.00,,,0.00,weatherlink.com 1.10,2013-07-25 05:15:00,
2013-07-24 22:30:00,59.3,55.0,30.03,West,278,0.0,0.0,86,0.00,,,0.00,weatherlink.com 1.10,2013-07-25 05:30:00,
2013-07-24 22:45:00,58.2,54.0,30.03,West,278,0.0,0.0,87,0.00,,,0.00,weatherlink.com 1.10,2013-07-25 05:45:00,
2013-07-24 23:00:00,57.4,54.0,30.03,West,278,0.0,0.0,87,0.00,,,0.00,weatherlink.com 1.10,2013-07-25 06:00:00,
2013-07-24 23:15:00,56.6,53.0,30.03,West,277,0.0,0.0,87,0.00,,,0.00,weatherlink.com 1.10,2013-07-25 06:15:00,
2013-07-24 23:30:00,55.9,52.0,30.03,West,278,0.0,0.0,88,0.00,,,0.00,weatherlink.com 1.10,2013-07-25 06:30:00,
2013-07-24 23:45:00,55.2,51.0,30.04,West,278,0.0,0.0,87,0.00,,,0.00,weatherlink.com 1.10,2013-07-25 06:45:00,